Location: Central Falls
(41.8900°N, 71.3929°W)
Time: 04:12:31
(UTC+00:00)

Vanguard 2 - Pass Details

Date: 05 December 2023
Orbit: 554 x 2918 km, 32.9° (Epoch: 01 March)

Event Time Altitude Azimuth Distance (km) Brightness Sun altitude
Rises 03:43:38 0° 255° (WSW) 6,713 12.4 -67.6°
Reaches altitude 10° 03:48:27 10° 252° (WSW) 5,563 11.9 -68.1°
Enters shadow 03:49:15 12° 252° (WSW) 5,367 11.8 -68.1°
Maximum altitude 04:03:57 57° 181° (S) 2,444 - -69.3°
Drops below altitude 10° 04:13:59 10° 106° (ESE) 3,732 - -69.9°
Sets 04:16:34 0° 102° (ESE) 4,442 - -70.0°
